Starlink 35550

operational
NORAD ID: 66268 Int'l Des: 2025-247 Owner: SPXS Country: US Constellation: starlink
NOTLE

About Starlink 35550

Description loading...

Live Position

Loading 3D Globe...

Upcoming Passes

Altitude History

Altitude vs Time

uPlot chart will show altitude changes over time

Two-Line Element Set

1 66268C 25247C 25305.06923611 .00473380 00000+0 71517-3 0 3050
2 66268 53.1569 79.7458 0008711 262.4549 332.6712 16.03309853 11
Epoch: Nov 1, 2025 • Age: 31 hours

Current Status

Altitude 265.6 km
Velocity 7.75 km/s
Sub-Earth Point 24.94°N, 83.11°E
Launch Date Oct 31, 2025
Age 1 days
Type internet

Technical Details

Classification Payload
Mass 575.00 kg
Dry Mass 530.00 kg
Total Mass 575.00 kg
Length 0.30 m
Diameter 4.10 m
Span 29.00 m
Shape Box + pan
Manufacturer SPXS
Bus Type Starlink V2MO
Phase Status In Orbit
Owner/State SPXS/US

Large Constellations

Loading constellations...